Weather in Jinhae-gu

South Korea     35°08′56″N   128°39′34″E
temp.,
°C
wind,
m/s
gust,
m/s
humid.,
%
clouds,
%
prec.,
mm/h
press.,
hPa
HPBL,
m
17 may, mon
mon1700:00+18sse2599100 2.4 1003360
03:00+17se2499100 4.9 1003281
06:00+15se2297100 0.1 1004249
09:00+15sse1195100 0.3 1006236
12:00+15sse1194100 0.4 1007247
15:00+16ese1193100 0.6 1007208
18:00+15e1197100 1.7 1008101
21:00+15ene1197100 1.9 101169
18 may, tue
tue1800:00+14ene1197100 0.6 101279
03:00+14se1196100 0.6 101169
06:00+14nnw1197100 0.1 101260
09:00+15nnw1194100 0.2 1013143
12:00+17se1187100 0.0 1012388
15:00+20s1170100 0.1 1011909
18:00+19s3377100 0.0 1011349
21:00+15sse119498 0.1 101233
19 may, wed
wed1900:00+15nnw1193100 0.0 101220
03:00+14wnw1195100 0.0 101318
06:00+15nnw1194100 0.0 101339
09:00+20nw1173100 0.0 1014366
12:00+24s1152100 0.0 1013938
15:00+25s32461 0.0 10121189
18:00+21sse2363100 0.0 1013271
21:00+17ssw2382100 0.0 101496
20 may, thu
thu2000:00+17se0082100 0.0 101330
03:00+16n1292100 0.6 101274
06:00+14nnw2497100 3.1 1012322
09:00+13n2496100 7.4 1011350
12:00+13n2497100 6.1 1010299
15:00+13nnw2398100 13.9 1008215
18:00+14ne1198100 7.6 1007114
21:00+14nne1199100 11.4 100775
21 may, fri
fri2100:00+14ne1299100 8.8 1004130
03:00+14n1299100 20.9 1003131
06:00+14nne129896 0.0 100484
09:00+16nne1191100 0.1 1005332
12:00+16ene1188100 0.0 1006369
15:00+16nne1193100 0.3 1006161
18:00+15ne1195100 0.3 100696
21:00+15ne1195100 0.5 100852